Location: Peebles
(55.6412°N, 3.1714°W)
Time: 00:41:02
(UTC+00:00)

Cosmos 2341 Rocket - Visible Passes

Search period start: 19 January 2022 00:00
Search period end: 29 January 2022 00:00
Orbit: 969 x 1004 km, 82.9° (Epoch: 18 January)

Date Brightness Start Highest point End Pass type
(mag) Time Alt. Az. Time Alt. Az. Time Alt. Az.
19 Jan 6.5 05:06:49 10° ESE 05:11:12 20° ENE 05:15:37 10° NNE visible
19 Jan 4.1 06:49:38 10° S 06:55:55 84° E 07:02:19 10° NNE visible
19 Jan 4.2 17:38:42 10° NNW 17:45:07 80° W 17:51:31 10° S visible
19 Jan 6.6 19:25:30 10° NNW 19:29:47 19° WNW 19:34:04 10° WSW visible
20 Jan 5.8 05:33:54 10° SE 05:39:23 33° E 05:44:56 10° NNE visible
20 Jan 4.1 07:18:28 10° SSW 07:24:41 62° WNW 07:31:01 10° N visible
20 Jan 5.1 18:07:32 10° NNW 18:13:40 50° W 18:19:46 10° SSW visible
20 Jan 7.1 19:55:59 10° NW 19:57:46 11° WNW 19:59:31 10° W visible
21 Jan 7.0 04:21:19 10° E 04:23:35 12° ENE 04:25:52 10° NE visible
21 Jan 4.8 06:01:42 10° SSE 06:07:46 53° E 06:13:55 10° NNE visible
21 Jan 6.0 18:36:33 10° NNW 18:42:01 31° W 18:47:27 10° SW visible
22 Jan 6.4 04:47:09 10° ESE 04:51:35 21° ENE 04:56:03 10° NNE visible
22 Jan 4.1 06:30:01 10° S 06:36:20 85° E 06:42:44 10° NNE visible
22 Jan 4.3 17:19:06 10° NNW 17:25:31 79° W 17:31:55 10° S visible
22 Jan 6.7 19:05:55 10° NW 19:10:10 19° WNW 19:14:25 10° WSW visible
23 Jan 5.7 05:14:15 10° SE 05:19:46 33° E 05:25:21 10° NNE visible
23 Jan 4.1 06:58:52 10° SSW 07:05:05 61° WNW 07:11:25 10° N visible
23 Jan 5.1 17:47:57 10° NNW 17:54:03 49° W 18:00:09 10° SSW visible
23 Jan 7.1 19:36:31 10° NW 19:38:09 11° WNW 19:39:47 10° W visible
24 Jan 7.0 04:01:35 10° E 04:03:58 12° ENE 04:06:22 10° NE visible
24 Jan 4.8 05:42:04 10° SSE 05:48:09 54° E 05:54:20 10° NNE visible
24 Jan 4.5 07:28:12 10° SW 07:34:03 38° WNW 07:40:00 10° N visible
24 Jan 6.0 18:16:58 10° NNW 18:22:24 30° W 18:27:50 10° SW visible
25 Jan 6.4 04:27:28 10° ESE 04:31:58 21° ENE 04:36:30 10° NNE visible
25 Jan 4.1 06:10:24 10° S 06:16:43 87° E 06:23:09 10° NNE visible
25 Jan 6.7 18:46:21 10° NW 18:50:33 19° WNW 18:54:45 10° WSW visible
26 Jan 5.6 04:54:37 10° SSE 05:00:09 34° E 05:05:46 10° NNE visible
26 Jan 4.1 06:39:15 10° SSW 06:45:29 60° WNW 06:51:50 10° N visible
26 Jan 5.2 17:28:21 10° NNW 17:34:28 48° W 17:40:32 10° SSW visible
26 Jan 7.1 19:17:02 10° NW 19:18:32 11° WNW 19:20:00 10° W visible
27 Jan 6.9 03:41:50 10° E 03:44:20 13° ENE 03:46:52 10° NE visible
27 Jan 4.7 05:22:26 10° SSE 05:28:33 55° E 05:34:45 10° NNE visible
27 Jan 4.5 07:08:37 10° SW 07:14:28 38° WNW 07:20:24 10° N visible
27 Jan 6.1 17:57:23 10° NNW 18:02:48 30° W 18:08:11 10° SW visible
28 Jan 6.3 04:07:48 10° SE 04:12:21 21° ENE 04:16:56 10° NNE visible
28 Jan 4.0 05:50:48 10° S 05:57:08 88° E 06:03:33 10° NNE visible
28 Jan 6.7 18:26:47 10° NW 18:30:57 18° WNW 18:35:05 10° WSW visible
